Theta_e
313 316 315 313 313 313 313 313 315 317 317 317 316 316 318 318 314 315 315 314 315 316 315 316 315 316 316 316 315 314 315 317 316 316 318 318 319 319 319 321 321 322 322 318 319 324 328 331 332 333 333 333 334 335 334 335 335 335 335 335 335 334 334 333 333 333 333 333 333 333 333 334 333 333 333 333 333 333 333 332 332 331 331 330 329 329
312 316 316 313 313 314 313 314 314 315 316 317 316 314 317 318 315 315 315 314 314 315 316 316 315 316 316 316 317 315 315 316 317 316 317 318 319 320 322 324 325 327 325 318 316 317 320 324 327 330 331 331 332 333 334 334 334 335 335 334 335 334 333 333 333 332 332 332 332 332 332 332 332 332 331 332 332 332 332 332 333 332 331 331 331 331
314 315 315 313 314 314 314 314 314 315 317 318 318 316 316 318 316 315 314 314 314 313 315 317 317 317 317 317 317 316 316 316 318 318 319 320 319 320 323 326 327 329 327 323 318 315 314 315 317 320 324 327 329 330 331 333 333 334 334 334 335 335 334 333 332 332 332 331 331 331 331 331 331 331 331 331 331 331 332 332 332 332 331 331 331 332
315 315 314 314 313 314 314 314 314 315 315 318 319 317 317 318 317 315 314 314 314 312 314 317 317 316 315 316 317 317 317 318 318 319 320 321 320 321 325 327 325 324 324 323 320 315 313 313 312 313 314 317 321 325 328 330 331 332 333 334 334 334 334 333 332 332 332 331 331 331 331 331 330 330 331 331 331 332 332 333 332 332 332 331 331 331
315 314 314 315 314 314 314 314 316 315 314 319 321 319 320 319 318 318 315 314 314 313 316 315 315 318 317 315 317 316 315 316 316 317 318 319 319 320 323 325 322 321 322 322 321 316 313 313 313 312 311 311 313 316 321 326 328 330 331 332 333 333 333 333 332 331 332 332 331 331 330 331 331 331 331 331 331 332 331 332 332 332 332 331 331 331
315 312 313 315 314 315 315 313 318 317 314 319 322 320 319 318 318 318 316 315 314 315 318 314 314 321 321 314 315 315 313 314 315 316 317 319 320 320 321 324 324 324 323 320 320 318 315 314 314 313 311 311 311 312 316 322 325 327 329 330 331 332 332 332 332 331 331 332 331 331 330 330 330 330 331 330 330 330 330 330 330 330 330 330 330 330
313 310 313 317 316 319 317 314 318 320 314 315 322 321 316 319 321 318 317 318 317 315 316 315 315 320 321 315 315 315 314 316 316 316 318 319 320 320 322 324 323 324 323 320 319 318 317 317 316 315 313 312 311 311 313 318 323 325 327 329 330 331 332 331 331 331 331 331 330 330 331 331 330 330 330 329 329 328 328 328 328 328 328 327 328 329
312 311 316 318 318 320 318 315 317 316 313 316 325 325 317 319 323 321 319 320 320 317 315 316 317 316 320 319 314 314 314 316 317 317 319 319 318 320 322 322 322 322 323 323 322 319 316 316 316 315 314 313 312 311 311 314 318 321 323 326 328 329 330 330 330 329 329 329 329 329 330 330 330 329 328 328 328 327 327 327 327 327 327 327 327 327
315 315 318 318 318 319 318 319 323 320 316 319 325 326 319 319 323 323 322 321 320 319 317 319 317 314 319 320 313 314 313 314 317 318 318 319 319 320 320 321 321 321 320 322 323 319 315 315 314 314 313 313 312 312 311 311 313 317 321 324 325 326 327 328 328 328 327 326 327 328 328 328 328 327 327 327 327 327 327 327 327 327 326 326 325 325
317 314 315 318 319 319 317 319 326 327 319 320 324 326 325 324 324 323 325 324 318 318 322 321 317 315 320 320 313 313 314 313 316 317 318 320 321 321 320 320 321 320 320 320 319 316 314 313 313 313 313 313 313 313 312 311 312 315 319 321 323 324 325 326 327 327 326 325 326 326 326 326 326 325 326 326 325 325 325 325 324 324 324 323 323 323
312 310 314 318 316 315 315 316 322 326 321 322 324 324 324 324 323 322 324 323 318 320 324 322 317 314 319 323 317 313 315 315 316 318 318 319 320 320 320 320 320 320 320 320 317 314 313 314 314 314 314 315 316 316 315 315 315 316 318 320 322 323 323 323 324 325 324 324 325 325 325 325 325 325 325 325 324 323 322 322 321 321 321 321 320 321
313 313 315 315 312 312 316 316 320 321 320 323 323 320 321 321 320 320 319 319 320 323 320 317 319 317 318 321 316 312 315 315 317 319 318 319 319 319 320 320 320 320 320 320 319 316 314 314 314 315 315 316 318 318 318 318 319 319 320 321 322 322 323 323 323 324 323 323 324 324 324 324 324 324 324 324 323 322 321 321 321 321 320 320 319 319
319 318 316 316 313 313 317 317 318 319 320 323 321 319 323 323 319 320 320 320 322 320 314 313 318 318 317 316 312 313 315 316 318 319 318 318 319 320 320 320 320 321 321 321 321 321 317 314 314 315 315 316 317 319 320 319 319 320 320 320 319 320 321 322 322 323 322 322 323 323 324 324 324 324 323 322 321 320 319 319 319 319 318 318 318 318
322 318 317 318 315 313 315 316 317 319 319 321 319 319 326 324 318 319 321 320 320 317 314 314 316 318 317 314 314 315 314 317 320 320 320 320 320 321 320 320 321 321 322 321 321 322 318 314 314 314 314 314 315 317 318 319 319 319 320 319 318 318 319 319 320 321 321 321 321 321 321 321 321 321 319 317 317 317 317 317 317 316 316 316 316 316
321 319 317 318 317 314 315 316 316 319 320 321 320 321 324 322 319 320 320 323 324 319 313 313 316 319 318 314 313 313 312 315 317 319 322 321 320 321 320 320 320 319 319 320 319 319 314 312 313 313 313 314 314 314 315 315 316 316 317 317 317 318 317 317 318 318 318 318 317 317 317 317 316 316 316 315 315 314 313 314 314 314 314 314 313 313
318 320 317 316 317 316 317 318 316 317 319 321 322 322 320 320 324 322 318 322 326 322 317 316 319 320 316 313 312 311 313 313 314 316 318 318 318 319 319 319 318 318 318 318 318 316 312 311 312 312 311 312 312 313 313 313 313 313 313 313 314 314 315 315 315 315 314 314 314 314 314 314 314 314 314 314 313 311 310 310 310 310 310 310 309 309
319 321 316 315 316 315 315 316 315 315 318 320 321 321 318 319 325 323 317 316 318 320 321 318 319 317 313 312 312 311 313 312 313 315 315 316 317 318 319 320 319 319 319 318 317 315 311 310 310 310 310 310 310 311 311 311 311 311 311 311 311 311 311 312 312 311 311 310 310 310 310 310 311 311 311 310 309 308 308 307 307 307 307 307 307 306
319 319 315 316 317 314 313 316 316 315 318 321 323 321 316 317 321 318 315 316 316 316 317 317 317 315 312 313 313 311 312 312 313 314 314 316 317 319 321 321 320 319 317 316 316 312 309 309 309 308 308 308 308 309 309 309 309 309 309 309 309 309 309 309 310 309 308 308 308 308 307 308 308 308 308 307 307 307 307 307 306 306 306 306 306 305
322 322 316 315 317 314 313 317 317 315 316 318 320 320 317 318 319 315 313 318 320 315 315 317 316 314 315 314 314 313 312 312 312 314 315 315 316 319 321 320 319 317 316 315 315 313 309 308 308 308 307 307 307 307 307 307 307 307 307 307 307 307 307 307 307 307 307 306 306 306 307 307 307 307 307 307 306 306 306 306 306 305 305 305 305 305
323 326 320 314 315 316 315 316 317 317 316 314 315 317 317 318 318 318 315 317 322 317 315 317 316 319 322 318 316 315 312 311 312 314 314 314 316 318 319 319 317 317 317 316 316 314 309 307 308 307 307 307 307 307 306 306 306 306 306 306 306 306 306 306 306 306 306 305 306 306 306 306 306 306 306 306 306 306 305 305 305 305 305 304 304 304
318 325 324 316 314 317 318 317 317 318 316 315 315 315 316 316 316 319 319 318 320 317 316 315 316 323 323 315 315 315 311 311 311 313 314 314 316 318 318 318 317 317 318 316 316 313 308 306 307 306 306 307 306 306 306 306 306 305 305 305 305 305 305 305 305 305 305 305 305 306 305 305 305 305 305 305 305 305 305 304 304 303 303 303 302 302
317 321 322 317 316 318 318 316 315 316 317 316 316 315 316 317 317 319 319 319 317 315 318 315 317 327 320 309 312 314 311 312 311 313 315 314 316 318 318 318 317 317 317 316 315 311 306 306 307 306 306 306 306 306 305 305 305 305 305 304 304 305 305 304 304 305 305 305 305 305 305 305 305 304 304 304 304 303 302 301 301 300 300 300 299 299
322 322 320 317 317 317 315 313 311 313 317 317 316 317 317 315 318 318 319 321 317 313 316 313 317 331 321 308 311 313 313 315 312 313 315 314 315 318 318 318 318 318 317 315 313 309 306 307 307 306 307 306 306 306 305 305 304 304 304 304 304 305 304 304 304 304 305 305 305 305 304 304 304 303 302 302 301 300 300 299 298 298 297 297 297 296
321 322 321 318 317 315 313 314 313 312 315 318 318 318 318 317 318 317 318 321 319 317 318 312 317 330 322 312 314 313 312 315 313 313 315 314 316 317 317 318 318 317 316 314 312 307 306 307 307 306 306 306 305 305 304 304 304 303 303 303 304 304 303 304 304 304 304 304 304 303 302 302 301 300 300 299 298 298 297 297 296 296 295 295 295 295
318 321 322 321 320 318 317 317 317 316 315 318 319 316 318 322 322 317 316 317 318 322 323 316 319 326 318 313 314 312 310 312 313 314 315 315 317 317 317 318 317 316 315 314 312 310 307 306 306 307 306 305 305 305 304 304 303 303 303 302 303 303 303 303 303 303 303 302 302 301 300 299 298 298 297 296 296 295 295 294 294 294 294 294 293 293
320 321 320 321 320 319 319 318 319 319 317 317 319 317 318 323 321 318 319 318 319 324 322 317 320 322 314 312 312 310 309 311 312 316 316 317 317 317 317 317 316 315 314 312 312 311 308 307 306 307 306 305 305 304 303 303 302 302 302 302 302 302 302 302 302 302 301 300 300 299 298 297 296 295 295 294 294 294 293 293 293 293 293 292 292 292
322 320 316 318 317 315 317 317 318 321 319 317 319 320 320 321 319 319 321 320 319 321 321 319 319 318 315 315 314 312 310 310 313 317 318 318 318 317 316 315 314 314 313 312 311 310 310 309 306 306 306 305 304 304 303 302 302 302 302 301 302 301 301 301 300 300 299 298 298 296 295 295 294 294 294 293 293 292 292 292 291 292 292 292 292 291
321 320 317 317 317 316 316 318 319 319 318 317 319 319 319 319 320 320 320 318 317 318 319 319 319 317 316 318 319 316 311 309 312 316 317 317 316 316 315 314 314 313 312 312 311 310 311 310 306 304 304 304 303 303 302 302 301 301 301 301 301 300 300 300 299 298 297 296 295 294 294 293 293 293 292 292 292 291 291 291 291 291 291 291 291 291
318 318 319 318 317 318 318 320 321 319 316 317 317 317 318 319 320 320 318 317 318 319 317 317 319 319 315 316 320 317 311 308 310 313 316 316 316 315 315 314 313 313 312 312 311 310 310 310 306 303 303 303 302 302 302 301 301 300 300 300 300 299 299 298 298 296 295 294 294 293 293 292 292 292 291 291 291 291 291 291 291 291 291 291 291 291
316 317 319 318 317 319 321 323 322 320 318 318 319 318 318 318 318 318 317 316 316 318 317 315 318 319 316 317 319 316 313 310 310 312 316 317 316 315 314 314 313 312 312 311 311 310 309 307 304 303 303 302 301 301 301 300 300 300 299 299 299 298 298 297 295 294 293 293 292 292 292 292 291 291 291 291 291 291 290 290 291 291 291 290 290 290
317 319 319 318 317 318 321 322 321 323 323 321 322 322 320 318 318 317 316 316 316 316 316 316 319 318 316 318 321 318 315 313 313 314 315 316 316 314 313 313 313 312 312 311 310 310 309 306 303 302 302 302 301 301 300 300 299 299 299 298 298 297 296 295 293 293 292 292 292 291 291 291 291 290 290 290 290 290 290 290 290 290 290 290 290 290
318 318 319 318 317 319 321 320 320 322 320 317 322 326 324 320 319 317 316 316 316 316 317 318 318 316 314 318 322 320 315 314 315 314 313 314 315 314 313 313 312 312 311 311 310 310 309 307 303 302 302 301 301 301 300 300 299 298 298 298 297 295 294 293 292 292 291 291 291 291 291 291 290 290 290 290 290 290 290 290 290 290 290 290 290 290
318 318 319 319 318 319 320 318 318 318 315 314 318 323 324 320 318 317 317 316 316 316 316 317 316 314 314 318 320 317 314 314 314 314 313 314 314 313 313 312 312 311 311 311 310 309 308 306 303 302 302 301 301 301 300 299 299 298 298 297 295 294 293 292 292 291 291 291 291 290 290 290 290 289 289 289 289 289 289 289 290 290 290 290 289 289
316 317 319 318 318 319 317 316 317 317 315 314 315 317 320 320 318 318 318 316 316 315 314 315 314 313 315 319 320 317 315 314 313 313 313 313 314 314 313 312 312 311 311 311 310 309 306 304 303 302 301 301 300 300 299 299 298 298 297 295 293 292 292 292 291 291 290 290 290 290 289 289 289 289 289 289 289 289 290 290 290 289 289 289 289 289
314 315 316 316 317 319 317 315 316 316 314 315 318 319 317 316 317 319 318 316 315 315 315 315 315 314 316 319 319 317 314 313 313 314 314 313 314 313 313 313 312 312 312 312 311 309 304 302 302 301 300 300 299 299 298 298 298 297 295 293 292 292 291 291 291 290 290 289 289 289 289 288 288 289 289 289 289 290 289 289 289 289 289 288 288 288
314 314 315 316 318 319 317 316 316 317 317 316 318 319 316 315 317 319 318 316 315 315 317 316 314 314 315 317 319 321 319 315 314 315 315 314 314 314 314 313 312 312 312 311 309 306 303 302 301 300 299 299 298 298 298 297 296 295 293 292 292 291 291 290 290 290 289 289 288 288 288 288 288 289 289 289 289 289 289 289 288 288 288 288 288 288
314 313 314 316 317 317 318 317 314 316 318 316 315 316 315 316 318 317 317 316 314 315 316 315 315 314 313 316 322 323 319 314 313 316 316 316 318 317 315 313 311 311 310 308 307 305 303 302 301 299 299 298 297 297 297 296 295 293 292 291 291 291 290 290 289 289 288 288 287 287 287 288 289 289 289 289 289 288 288 288 288 288 288 288 288 288
315 316 315 316 317 316 317 317 315 316 317 315 316 318 314 314 318 317 315 315 314 315 316 314 314 314 314 319 323 319 315 314 314 314 315 318 320 319 316 312 308 307 307 305 305 304 302 301 300 298 298 297 296 296 295 294 293 292 291 291 290 290 290 289 288 288 288 287 286 287 287 288 289 289 288 288 288 288 288 288 288 288 288 288 288 288
316 318 317 315 317 317 317 317 316 316 315 316 321 322 316 317 321 318 315 315 313 315 317 315 315 314 315 320 321 318 316 316 314 312 315 319 318 316 318 315 307 304 305 305 303 302 300 299 298 297 296 296 295 295 294 292 292 291 290 290 290 290 289 288 287 287 286 286 286 287 288 288 288 288 288 288 288 287 287 287 287 287 287 287 287 287
314 316 317 316 317 317 316 316 315 314 315 321 325 322 316 317 319 317 316 315 314 315 316 315 315 315 315 319 318 316 315 315 314 314 315 316 313 309 311 312 306 301 301 302 301 300 299 298 297 295 295 295 294 293 292 291 291 290 290 290 290 289 288 287 286 286 286 286 286 287 288 288 287 287 287 287 287 287 287 287 287 287 287 287 287 287
314 314 316 316 317 317 317 316 314 315 319 324 322 318 316 315 316 316 315 315 319 320 316 315 315 313 314 317 314 313 315 317 316 312 309 311 313 306 301 301 301 299 299 298 298 297 296 296 295 294 293 293 293 292 291 291 290 290 290 290 289 287 286 286 285 285 286 286 287 287 287 287 287 287 287 287 287 287 287 287 287 287 287 286 286 286
314 314 315 315 315 316 316 316 315 316 321 322 317 313 314 314 315 316 314 314 319 323 319 317 316 314 317 318 313 314 318 316 312 309 307 309 310 305 298 296 297 296 296 296 296 295 294 293 292 291 290 290 291 290 290 290 290 289 289 288 287 286 285 285 285 285 286 286 286 287 287 287 286 286 286 286 287 287 287 286 286 286 286 285 285 285
314 314 315 315 314 314 315 316 316 316 316 316 314 312 315 315 315 318 317 312 312 318 320 318 316 316 321 321 315 315 318 314 309 308 307 305 304 301 297 295 294 294 294 294 294 294 293 291 289 289 288 288 289 289 289 289 289 288 288 286 285 285 285 285 285 285 285 286 286 286 286 286 286 286 286 286 286 286 286 286 286 285 285 284 284 283
314 315 316 315 313 314 315 314 316 317 314 313 314 316 317 316 315 318 320 315 311 313 318 319 316 314 318 321 318 316 316 313 308 306 304 302 300 299 296 294 293 293 293 293 292 292 291 289 287 286 286 286 287 288 288 288 288 287 286 285 284 285 285 284 284 284 285 286 286 286 286 286 286 286 286 286 286 286 286 286 285 284 284 283 282 281
314 314 317 316 313 315 317 317 318 316 312 312 316 317 316 316 315 315 318 319 316 314 315 318 317 313 314 319 319 315 313 310 306 304 302 301 299 297 295 293 292 292 292 291 291 290 289 287 285 284 283 284 285 287 287 287 287 286 284 283 284 284 283 283 283 284 285 286 286 285 285 285 286 286 286 286 286 285 285 284 283 283 282 281 280 280
314 313 315 316 315 315 317 319 316 313 311 312 314 314 314 314 312 312 315 318 317 313 313 317 319 315 312 315 317 313 310 308 305 302 301 299 298 296 293 291 291 291 291 290 289 289 287 286 284 283 282 282 283 285 285 285 286 285 283 283 283 282 281 282 284 285 285 285 285 285 285 286 286 286 285 285 284 284 282 281 281 281 280 279 279 279
312 311 313 317 318 316 315 317 316 314 314 313 312 312 313 311 308 308 311 313 311 309 309 312 314 313 310 312 316 315 311 307 305 302 299 297 297 295 292 290 289 289 289 289 288 287 286 284 283 282 281 280 281 282 283 283 283 283 282 282 281 281 282 283 284 285 285 285 285 285 285 285 285 285 284 284 283 282 281 280 279 279 278 278 278 278
312 311 314 317 317 315 314 314 312 312 312 311 310 311 311 310 308 306 306 305 304 304 305 305 307 308 308 309 312 314 310 306 305 302 298 296 296 294 290 288 288 287 288 287 287 286 285 283 282 280 279 278 279 281 282 282 281 281 281 281 281 281 283 284 284 284 285 284 284 284 284 284 284 283 283 282 281 280 280 280 279 279 278 278 277 277
309 312 315 316 315 314 313 311 309 311 311 310 309 308 306 306 306 306 304 303 303 303 304 304 303 303 304 305 308 311 309 305 302 301 298 297 295 292 290 288 287 286 286 286 286 285 284 283 281 280 279 278 279 281 281 280 280 280 281 281 281 281 283 284 284 284 284 283 283 283 282 282 281 280 280 279 279 279 279 278 278 279 279 278 277 276
308 312 314 315 315 314 312 310 310 313 312 307 305 305 303 302 303 304 304 303 303 303 304 304 302 300 299 300 302 306 308 305 300 299 298 296 294 291 289 287 285 284 284 284 284 284 283 282 281 279 278 278 279 280 279 279 279 279 279 280 281 281 282 283 283 283 282 281 281 280 280 280 280 279 278 277 277 278 279 280 279 278 278 278 277 275
308 311 311 312 314 311 306 305 307 309 307 303 302 303 302 300 302 304 303 302 302 302 301 302 303 302 302 300 298 301 305 303 298 297 298 295 292 290 288 286 284 283 282 283 283 282 281 280 280 278 278 278 279 279 278 277 278 278 278 279 280 281 282 282 282 280 279 279 279 280 280 279 278 276 276 276 276 276 278 280 281 280 279 277 276 275
Wind_Speed
5 4 5 6 7 8 8 9 7 6 7 9 9 6 5 6 2 2 2 1 1 3 6 7 6 7 7 7 7 9 9 7 7 7 6 6 5 5 6 7 7 7 5 8 13 18 19 19 20 19 19 21 21 20 21 22 22 23 23 23 23 24 23 21 22 22 21 21 20 19 19 19 17 17 17 18 19 20 21 21 20 20 20 20 19 19
5 5 6 8 8 8 10 11 6 3 5 8 9 7 6 5 3 2 2 1 1 1 4 7 7 8 6 7 5 8 9 8 8 8 7 7 7 7 7 8 7 5 4 7 10 12 15 16 18 18 19 20 21 21 22 22 23 23 23 23 23 23 24 23 22 22 22 21 21 19 19 18 17 16 17 17 18 19 19 19 21 21 21 21 21 22
6 6 7 9 9 7 10 10 4 1 5 5 7 6 6 4 5 4 2 2 1 1 1 1 3 6 6 6 7 6 8 8 8 7 6 6 7 6 6 6 7 7 5 5 6 9 12 13 15 17 18 19 20 21 21 22 22 23 22 22 22 22 23 24 23 22 21 20 19 17 16 15 15 15 15 14 14 15 16 16 17 18 19 19 20 21
5 5 6 9 9 9 10 8 4 2 4 2 4 5 5 5 5 1 2 2 0 1 1 3 2 5 5 6 7 6 4 4 5 4 4 4 3 3 4 4 4 6 6 5 6 8 11 12 13 15 17 18 18 18 19 21 21 22 23 22 22 21 22 23 23 22 21 19 17 16 14 13 13 13 13 13 12 12 13 13 14 14 14 15 16 17
5 1 2 4 9 8 7 7 5 4 3 1 1 3 5 6 4 3 5 5 1 0 1 2 4 5 6 8 8 3 2 3 5 4 2 1 1 2 2 1 2 3 4 3 4 7 10 12 13 14 14 16 17 17 17 19 20 20 22 22 21 21 21 21 22 22 20 18 18 17 16 15 13 14 13 13 13 13 12 13 13 13 13 13 14 16
4 1 3 2 7 6 5 6 6 5 3 0 1 1 5 7 7 8 8 5 3 2 3 2 1 5 6 9 8 3 2 3 4 4 4 3 2 3 2 3 4 4 4 2 1 4 7 9 10 11 11 13 15 16 15 16 18 18 19 21 21 20 20 20 21 23 22 21 19 18 19 18 16 15 13 13 12 12 11 12 11 11 12 12 13 14
2 1 1 3 7 7 6 5 6 6 4 3 2 2 6 10 9 10 9 5 3 3 2 2 3 4 4 4 6 6 5 5 4 4 6 6 5 5 5 4 5 5 4 3 2 3 4 6 8 9 10 11 12 14 15 15 16 16 16 19 20 20 20 20 20 22 24 23 21 19 18 18 17 15 13 11 11 11 11 10 9 8 9 10 11 12
2 1 1 3 4 5 6 4 5 7 4 2 3 3 7 11 8 9 8 4 2 2 2 2 2 1 5 4 3 8 8 6 5 6 6 6 6 5 5 5 5 5 5 5 5 4 5 5 7 9 8 8 10 13 15 16 16 15 16 17 19 19 19 19 18 20 22 23 22 19 17 16 15 13 11 8 8 9 10 9 8 8 8 7 8 10
2 3 2 4 5 4 4 1 3 4 3 2 5 2 5 9 7 7 6 3 1 3 1 3 1 1 5 5 1 5 6 6 7 8 7 7 6 6 6 5 5 5 4 4 5 6 6 6 7 8 8 7 8 10 12 15 17 15 16 17 17 17 18 19 18 19 20 20 19 18 15 14 13 12 11 9 7 7 8 9 8 9 10 10 9 9
2 2 1 2 4 3 2 2 4 0 3 3 5 1 6 6 5 4 5 4 3 2 2 5 3 1 4 4 3 3 3 7 7 7 7 7 6 6 6 6 6 5 4 5 6 7 8 7 7 8 8 7 8 8 9 12 15 15 15 16 16 15 16 18 17 17 18 16 14 14 13 12 12 11 11 10 8 7 7 8 8 9 10 11 9 9
1 1 1 1 1 2 4 2 3 1 5 5 3 5 7 6 5 4 3 5 4 1 3 3 0 2 3 5 4 4 3 5 6 6 6 6 6 6 6 6 6 6 5 5 6 7 9 9 9 9 10 9 10 10 11 13 14 15 16 17 17 14 13 16 15 14 15 14 12 12 12 11 11 11 9 8 6 6 5 5 5 5 5 6 6 7
2 2 0 1 2 2 4 4 5 3 4 5 4 5 5 4 5 5 3 3 2 3 3 3 4 1 3 5 2 3 3 1 4 8 8 7 7 6 5 5 6 6 6 6 5 6 8 9 10 11 12 12 12 11 12 14 15 16 18 19 19 17 15 16 15 14 14 14 13 12 12 12 11 10 8 6 6 5 4 3 3 3 3 4 4 5
3 2 1 1 2 3 3 4 4 5 2 2 5 6 5 2 1 1 1 1 2 3 3 2 3 1 4 6 5 5 3 2 3 7 9 8 8 6 6 6 5 5 6 5 5 5 6 8 10 11 12 12 13 13 13 14 15 16 16 18 18 18 18 18 16 15 15 14 14 14 13 13 12 11 10 8 7 5 4 3 3 3 3 3 3 4
2 1 1 2 1 2 2 3 4 1 2 3 6 5 5 4 2 2 3 2 2 3 3 4 2 2 3 5 6 3 4 4 5 7 8 8 8 7 7 6 5 6 6 5 5 5 5 7 10 11 12 13 13 13 14 14 15 15 15 15 16 16 17 17 16 16 15 14 14 14 13 12 11 10 8 6 4 3 3 2 1 1 1 2 3 3
3 1 2 2 1 1 1 1 3 5 3 3 4 4 5 4 4 4 4 3 3 1 2 3 1 3 3 2 1 2 5 6 7 7 7 7 7 6 6 6 6 6 5 5 6 5 6 9 11 11 12 13 13 13 14 14 15 16 16 16 17 16 14 14 14 14 13 12 10 10 10 8 7 7 5 5 3 3 3 2 1 2 1 2 2 3
6 2 1 1 2 1 1 2 1 4 3 3 2 3 2 3 4 3 2 4 5 2 0 2 2 4 3 1 2 4 6 6 6 6 7 7 6 6 6 6 6 6 5 6 6 5 7 10 11 11 12 12 13 14 14 14 14 16 17 17 18 17 16 15 14 14 13 12 11 11 10 9 9 9 7 5 4 4 4 4 4 4 3 2 3 4
6 1 3 2 1 2 1 2 2 2 3 1 2 3 4 3 6 5 1 0 3 2 2 3 2 4 1 0 2 4 5 4 4 4 6 6 6 6 6 5 6 6 5 6 5 5 7 10 11 11 12 12 13 14 14 14 15 15 16 18 18 18 17 17 16 15 14 14 13 12 12 11 10 10 9 7 6 6 6 6 6 5 5 5 6 6
5 3 3 2 2 1 1 1 1 1 2 3 3 5 3 2 3 3 1 2 2 1 2 3 4 4 1 2 2 4 5 4 6 6 6 6 6 6 6 6 6 6 6 6 6 7 8 10 11 11 12 13 13 13 14 14 15 15 16 17 18 18 17 17 17 16 15 15 15 15 14 13 12 11 10 10 9 8 8 8 8 7 8 8 8 9
5 4 2 3 1 2 1 2 2 0 2 3 2 2 2 1 1 1 3 1 2 3 2 3 5 4 4 4 4 6 8 8 7 7 7 8 7 6 6 6 6 6 6 6 5 5 7 10 11 12 13 13 13 14 14 14 15 16 16 17 18 18 18 17 17 17 17 16 16 16 15 15 14 13 12 12 12 11 11 11 11 11 11 11 12 12
4 4 1 3 2 1 1 1 4 2 0 1 0 1 2 2 2 3 3 3 3 3 3 2 1 3 6 6 8 11 11 10 10 8 8 9 8 7 7 7 6 6 6 6 6 5 7 10 11 11 12 13 14 14 15 16 16 17 17 18 19 19 19 19 18 18 18 17 17 17 17 16 15 15 15 15 14 14 14 14 13 12 13 13 13 13
3 3 3 1 3 0 1 1 4 5 4 2 2 2 2 1 2 1 2 2 4 3 3 2 2 5 6 3 7 12 12 11 12 10 9 8 8 7 7 7 7 6 6 6 6 5 8 11 11 11 12 13 14 14 15 16 17 17 18 18 19 20 20 20 19 19 19 19 18 18 18 18 17 17 16 16 15 15 16 15 14 14 14 14 14 14
1 3 5 3 0 2 1 2 1 2 4 4 3 5 5 3 4 2 2 1 2 2 3 3 3 6 4 2 1 4 7 9 12 11 9 8 9 8 8 8 7 7 6 6 6 6 9 11 12 12 12 13 14 15 15 16 17 17 18 18 19 20 21 20 20 20 20 20 20 20 19 19 18 17 16 16 16 16 16 15 15 15 15 15 15 15
2 4 5 3 2 2 0 1 1 1 2 2 1 3 4 4 4 4 3 3 1 1 1 2 2 6 4 2 5 3 2 4 10 11 9 9 9 8 8 8 7 7 6 7 7 7 10 12 12 12 12 13 14 14 15 15 16 17 18 18 20 21 21 20 20 21 21 21 20 20 19 18 18 17 16 16 16 16 16 16 15 15 15 15 15 15
2 4 4 3 1 2 2 0 1 1 0 1 3 4 3 4 5 4 3 2 2 2 2 2 4 7 4 3 4 4 6 3 7 11 10 8 7 8 9 8 8 7 7 7 7 8 11 13 12 12 13 13 14 14 15 15 16 17 18 19 20 21 21 20 20 20 20 21 20 20 19 19 18 17 17 17 16 15 15 15 14 14 15 14 14 14
2 3 4 4 3 1 2 1 1 2 2 2 3 4 3 3 5 3 1 1 1 4 6 5 4 6 4 4 5 4 5 4 4 9 9 9 8 8 8 8 8 8 7 7 7 7 9 10 11 12 12 13 14 14 15 15 16 18 18 18 19 20 20 20 20 20 20 20 20 20 19 19 18 17 17 17 16 15 14 14 14 14 14 14 14 14
4 4 5 5 5 4 4 4 4 3 2 1 1 4 6 5 7 5 2 2 3 5 6 6 5 6 4 4 4 2 1 1 3 6 8 8 8 9 9 8 8 8 8 8 8 7 7 8 10 12 13 13 14 14 15 15 16 18 18 18 19 19 20 20 19 20 20 20 20 20 19 18 18 17 16 16 15 14 13 13 13 14 15 15 15 15
3 3 5 8 8 9 8 7 6 6 5 5 6 8 9 9 9 6 4 5 6 5 4 6 7 6 5 3 3 4 4 5 5 6 7 7 8 9 9 8 8 8 7 8 7 7 7 8 10 13 14 14 14 15 15 16 16 18 18 18 19 19 20 20 20 20 20 20 20 19 19 18 17 16 15 14 14 13 13 13 13 14 16 16 16 17
4 3 6 9 10 9 8 6 8 10 9 12 14 13 12 10 9 7 5 9 7 4 5 8 8 8 8 6 7 8 6 6 6 8 8 8 9 8 8 8 8 8 7 7 8 8 8 8 9 13 15 15 16 16 16 16 16 18 19 19 19 19 20 20 20 21 20 20 19 19 18 17 16 15 14 14 13 13 13 13 13 15 17 17 17 18
4 4 6 7 8 7 3 4 9 12 10 11 12 14 14 11 11 11 12 13 8 6 10 12 11 12 10 7 8 9 9 9 10 10 7 7 8 8 9 9 9 9 9 9 9 9 9 8 9 13 16 16 17 17 17 17 17 18 19 19 19 20 20 20 20 20 20 19 19 18 16 15 15 14 14 13 13 13 13 13 14 16 17 18 18 19
3 4 4 6 7 7 2 3 5 8 8 8 10 11 12 12 14 15 15 17 13 11 13 13 10 11 9 7 8 9 9 9 8 7 6 7 10 10 11 11 10 11 11 11 11 10 9 9 11 15 17 18 19 19 19 19 18 19 19 19 20 20 20 20 20 20 19 18 17 16 15 14 14 13 13 12 12 12 12 13 15 16 18 18 19 19
0 3 2 5 4 5 2 3 2 3 3 5 6 8 11 12 13 14 14 15 12 11 13 12 9 11 8 6 5 5 7 7 6 8 8 8 10 11 12 12 12 12 12 12 11 10 9 10 13 16 18 19 21 21 21 20 20 20 20 19 20 20 20 20 20 19 18 17 16 15 14 13 12 12 12 11 11 12 13 15 16 18 18 19 20 21
2 1 1 3 4 4 1 2 3 6 6 2 2 6 11 12 12 13 13 12 10 10 12 11 9 12 9 5 3 3 7 9 9 10 9 8 10 12 13 14 13 13 13 13 12 11 11 11 14 17 19 20 22 22 22 22 22 21 21 21 21 21 20 19 18 18 17 16 15 13 12 11 11 11 11 11 12 13 14 16 17 18 19 19 20 22
5 4 1 2 5 3 4 1 5 6 4 3 6 9 13 13 12 11 9 11 12 11 10 9 11 13 8 5 5 5 7 9 10 9 9 9 10 12 13 14 14 14 14 13 12 12 12 13 17 20 21 22 23 23 24 24 24 23 22 22 22 21 20 18 16 16 15 14 13 12 11 10 10 10 10 11 12 14 15 16 18 19 19 20 21 22
7 7 4 3 4 1 4 1 5 4 5 8 6 10 14 14 13 11 10 13 14 12 10 10 11 11 6 7 8 8 8 9 9 9 10 9 10 11 12 13 13 13 11 11 11 11 13 16 19 21 23 24 24 24 24 24 24 24 23 23 22 20 19 17 16 15 14 12 11 10 9 9 9 9 10 11 13 14 16 17 18 19 19 20 22 23
8 8 6 4 3 1 1 2 3 5 9 6 1 6 11 12 13 12 13 15 15 13 13 12 12 11 7 7 9 9 10 10 8 9 10 10 10 11 12 12 12 12 11 11 12 12 15 20 22 23 25 25 25 25 25 24 25 25 24 22 21 20 18 16 15 14 12 10 9 8 7 7 8 9 11 12 13 15 16 17 19 19 20 21 23 25
9 8 5 4 4 2 2 4 5 6 4 2 1 2 5 7 9 9 11 14 13 11 11 13 15 15 11 8 5 4 4 5 6 7 9 10 10 10 11 12 13 13 13 15 16 17 20 25 27 27 28 27 27 27 26 26 26 26 24 22 20 19 17 15 14 12 10 8 7 6 5 6 8 9 11 13 14 15 17 18 19 20 21 23 25 26
7 8 5 4 5 4 4 5 4 5 6 5 6 4 4 6 8 8 8 11 11 11 11 13 15 15 11 6 4 2 3 3 2 7 8 7 8 11 12 13 14 14 14 15 19 21 24 27 27 29 29 28 28 28 27 27 27 26 24 21 19 18 16 14 12 11 9 6 5 4 4 6 8 10 12 13 14 16 17 18 20 21 23 25 27 28
3 5 6 5 4 4 4 3 2 3 9 11 7 4 6 7 7 8 6 9 9 10 11 12 14 14 9 5 6 4 4 2 5 8 7 7 9 9 7 7 10 14 16 20 24 25 26 28 28 29 31 30 28 28 28 28 27 26 24 20 18 17 15 13 11 10 8 6 4 4 4 6 8 11 12 13 14 16 17 19 20 21 23 25 27 28
3 2 3 5 3 4 6 4 5 7 11 10 5 5 7 9 9 9 4 10 8 8 10 11 13 13 8 7 7 6 5 3 9 8 5 8 8 5 5 5 9 15 21 26 30 30 30 31 30 29 30 30 29 28 28 27 26 25 23 19 17 16 14 12 10 9 7 5 4 3 4 7 9 11 12 13 14 16 17 19 20 21 23 24 26 27
1 2 3 5 4 5 6 5 4 5 7 6 7 7 7 10 11 10 5 10 5 7 10 12 12 12 10 9 8 8 7 8 9 6 2 4 4 5 7 8 10 15 20 24 29 32 33 33 32 30 29 30 30 29 28 27 25 24 21 19 17 15 13 12 10 8 7 5 4 3 5 7 9 11 12 13 14 15 17 19 20 22 23 24 25 27
2 1 2 5 5 5 6 5 4 4 5 5 6 6 8 11 8 7 8 7 2 2 5 8 10 10 8 8 8 7 7 4 3 2 2 6 8 7 8 12 14 17 20 24 28 31 32 31 31 30 28 28 29 29 28 27 25 22 20 19 17 15 13 11 9 8 7 5 4 4 6 8 9 11 11 12 14 15 16 18 20 21 23 24 26 27
4 3 3 5 5 5 4 4 3 6 5 4 3 1 5 8 4 7 6 2 0 1 3 1 3 2 4 8 8 7 5 3 5 6 5 7 8 7 9 14 17 18 20 24 27 30 30 28 27 26 26 26 28 28 26 26 25 22 20 19 16 14 13 11 9 8 7 5 5 6 7 8 9 10 11 12 14 15 16 18 19 21 23 24 25 27
6 5 4 5 5 4 4 5 4 6 4 8 9 1 3 4 5 5 2 2 1 1 3 4 2 2 4 7 6 5 6 5 5 6 6 6 7 8 9 12 15 17 21 24 25 27 29 28 26 25 24 24 25 25 25 25 25 22 20 18 16 14 13 11 9 8 7 6 5 6 7 8 9 10 11 12 14 15 17 18 20 21 22 24 25 27
6 6 4 4 5 5 5 7 6 4 4 8 7 4 5 5 3 4 5 3 0 2 2 4 3 2 4 6 6 6 7 6 5 6 6 6 6 7 9 11 15 18 20 22 23 26 28 28 25 24 23 22 23 24 24 25 25 23 20 18 15 14 12 11 10 8 7 6 6 6 6 7 8 9 11 13 14 16 17 19 20 21 22 23 25 26
5 5 4 4 5 5 5 6 4 3 5 4 1 1 5 5 2 3 6 4 1 2 3 3 3 3 4 6 7 6 5 5 6 6 6 7 7 7 9 12 15 18 19 21 23 24 26 27 26 25 22 20 21 22 23 23 23 22 20 16 15 14 12 10 9 8 6 6 5 5 5 6 8 9 11 13 15 17 18 19 21 22 23 24 25 25
2 2 2 2 4 4 4 4 3 1 3 2 2 2 3 4 4 4 5 4 3 2 2 4 4 4 5 5 6 5 4 6 7 6 6 7 7 8 10 12 15 18 20 21 22 23 25 26 26 25 23 20 19 21 22 21 21 20 18 16 14 13 11 9 8 7 6 5 4 5 5 6 8 9 11 13 15 16 18 19 20 22 23 23 24 24
2 2 2 2 4 5 4 3 4 3 3 3 0 3 3 4 5 5 5 4 3 4 2 3 4 4 5 5 6 6 6 7 8 7 7 7 7 8 9 11 14 17 19 21 22 25 26 26 24 23 23 21 19 20 21 20 19 18 17 15 14 12 10 9 8 6 5 5 4 5 6 7 9 10 12 14 15 17 18 18 19 21 22 22 23 25
1 3 2 2 5 5 2 2 3 2 1 2 3 3 4 4 5 5 4 4 3 2 1 2 4 4 2 3 5 7 7 8 9 8 7 7 7 7 9 12 15 17 18 20 22 24 25 24 23 23 22 21 19 20 20 19 18 17 17 15 13 11 10 8 7 6 5 4 4 5 6 8 10 11 13 15 16 18 18 19 20 21 22 21 21 23
3 4 3 3 4 2 0 2 2 3 4 6 6 5 4 4 3 2 3 4 3 3 2 4 5 4 2 0 3 7 8 8 8 9 9 8 7 8 10 14 17 18 20 21 22 23 23 23 23 23 22 21 21 21 20 19 18 17 15 13 12 10 9 8 6 5 5 4 4 5 7 9 10 12 14 15 17 18 18 19 20 23 23 22 19 19
3 3 3 4 4 3 2 2 2 3 3 3 5 5 4 4 3 2 3 3 3 3 4 5 5 4 3 2 0 5 8 7 7 9 9 7 9 11 15 18 18 19 20 21 20 21 22 22 23 24 23 22 22 22 20 19 18 16 14 12 11 10 8 7 6 5 5 4 5 6 7 9 10 11 13 15 17 20 21 21 21 22 23 22 19 18
3 3 3 4 4 3 2 2 2 4 5 1 3 4 5 5 5 6 6 6 6 5 5 3 3 4 3 3 2 2 6 6 7 9 8 7 10 15 19 21 22 21 22 23 22 22 22 22 23 23 23 23 23 22 21 19 17 15 13 12 10 9 7 7 6 6 5 4 5 6 7 8 9 10 12 14 16 19 23 25 26 26 24 21 20 21
Wind_Direction
175 157 187 201 203 200 209 227 222 211 192 167 176 199 180 164 145 101 122 307 39 146 219 222 228 241 239 230 194 175 184 194 199 200 203 198 196 200 189 184 183 182 166 126 144 166 173 179 184 187 190 190 192 193 195 196 197 197 196 197 200 199 197 196 196 198 202 204 204 208 213 220 227 232 237 239 238 238 238 242 244 248 253 256 262 263
172 196 200 198 211 199 204 227 225 240 236 178 173 194 190 170 144 73 93 204 20 89 221 219 228 244 239 250 235 168 172 197 203 200 205 203 198 206 199 187 174 148 126 122 127 146 160 169 177 184 189 191 195 196 197 198 198 198 197 197 200 199 198 197 196 197 199 202 203 206 212 217 222 228 233 237 240 242 243 244 243 246 249 253 256 254
188 212 195 192 216 211 207 219 191 252 262 192 165 179 188 172 120 71 59 125 110 101 241 171 236 258 244 240 244 202 192 198 191 183 183 186 187 188 179 167 149 128 135 157 152 157 169 178 183 187 190 192 196 200 201 202 201 200 199 200 200 199 200 200 198 199 199 201 203 206 212 213 218 226 231 234 238 241 245 248 248 246 245 246 251 252
188 204 199 192 209 215 206 201 164 206 265 206 147 156 170 163 135 125 187 152 163 161 72 11 305 266 256 245 238 224 205 161 142 118 101 118 148 137 114 115 127 137 152 171 170 168 173 181 188 194 198 198 198 200 202 203 202 202 202 201 200 199 200 200 199 200 199 199 201 204 209 210 210 215 221 224 225 228 234 241 249 251 250 249 251 254
179 198 288 205 196 201 185 181 179 179 220 284 116 141 154 157 127 100 145 143 64 28 144 343 321 280 226 217 228 225 66 107 116 95 85 84 111 87 71 122 159 139 134 163 172 156 159 173 187 198 202 204 202 200 200 201 201 202 202 201 200 199 198 199 199 197 195 195 198 201 204 207 207 208 214 218 220 224 229 236 243 247 251 253 254 258
191 262 330 186 180 182 163 178 192 173 176 168 355 182 147 141 110 106 132 127 92 260 244 136 7 290 232 200 203 171 125 158 137 146 184 188 171 169 200 189 161 137 126 149 155 126 144 163 174 186 194 197 201 200 197 196 195 196 199 199 197 196 196 197 198 197 193 192 195 198 202 207 209 213 221 228 228 228 232 238 242 245 250 254 258 262
161 326 320 183 175 173 171 195 196 176 170 167 242 304 119 124 116 129 150 140 127 214 269 109 159 264 292 218 181 156 163 169 154 191 188 165 169 181 179 158 137 133 139 155 157 125 142 158 161 171 188 196 198 199 197 190 187 189 191 192 192 192 192 193 195 198 196 196 198 200 205 210 211 215 222 229 232 232 232 234 239 246 250 256 259 258
106 106 264 177 155 158 169 199 207 184 171 187 270 323 111 123 129 146 155 155 151 143 28 4 155 196 302 285 164 145 155 164 180 208 191 161 164 160 147 139 128 125 134 152 157 138 132 143 152 157 167 183 189 192 195 190 184 184 184 185 186 187 188 189 192 196 198 201 201 201 206 209 210 214 215 218 224 225 224 221 225 229 230 242 254 255
61 143 174 144 137 157 168 240 263 182 146 238 271 286 126 129 139 147 141 137 109 81 18 270 166 135 269 269 143 131 156 191 202 196 185 167 158 148 138 136 130 122 118 129 131 119 111 111 120 138 149 164 179 184 191 191 184 178 177 178 178 182 185 186 189 192 194 198 199 200 204 206 209 211 210 215 211 202 209 216 222 227 230 238 250 258
357 176 218 126 141 156 134 2 317 42 115 210 235 61 80 96 111 126 127 110 76 68 228 228 176 150 265 251 184 159 198 216 204 181 170 158 149 142 134 135 135 126 110 97 102 106 109 115 116 128 141 145 153 160 166 175 177 173 169 169 169 174 183 183 185 190 190 189 192 196 199 202 204 206 211 223 225 223 233 241 247 252 251 252 255 262
260 206 271 55 123 165 129 88 332 31 120 146 148 81 63 53 46 51 77 86 79 262 247 259 31 101 266 261 190 184 237 217 179 155 149 144 143 142 139 144 139 132 129 112 107 112 115 121 122 122 126 124 128 138 144 149 157 162 162 161 160 159 170 176 176 180 181 176 176 183 187 191 195 197 208 220 227 239 251 255 263 275 282 282 281 279
65 41 18 46 317 236 135 86 4 18 112 115 120 112 81 34 27 31 13 57 106 236 254 308 345 51 229 258 214 203 263 305 149 157 159 155 154 152 147 138 125 127 133 125 123 127 123 120 116 115 115 118 120 125 135 141 147 154 158 159 154 148 152 160 163 167 170 168 171 175 179 185 189 190 196 201 205 218 228 236 246 253 278 296 304 306
70 60 117 53 303 249 141 97 33 357 352 114 139 126 103 78 55 76 266 181 188 244 265 297 326 292 233 244 248 226 209 37 87 145 155 154 152 153 144 122 106 111 114 114 115 112 112 109 107 108 107 112 118 121 129 138 145 150 154 159 156 151 151 152 155 161 164 167 173 174 176 181 186 189 192 194 197 204 202 211 235 246 272 301 316 321
73 41 161 83 325 237 160 129 133 210 276 174 155 137 130 137 136 174 191 188 214 258 283 290 292 269 263 262 268 243 149 89 69 111 132 138 142 145 138 123 105 97 93 96 97 90 90 91 96 101 103 108 113 117 122 127 135 139 142 147 145 144 149 152 158 163 163 168 174 175 177 179 182 186 184 175 173 172 159 171 216 271 319 337 333 320
140 194 194 138 177 173 147 163 151 154 175 192 169 142 148 156 157 175 173 171 187 223 314 303 264 194 211 240 258 66 86 74 62 83 98 104 117 121 119 119 113 100 92 91 87 82 84 86 92 97 100 105 108 112 115 118 126 130 131 132 130 130 137 141 147 151 151 155 157 157 159 157 157 150 132 124 131 132 130 134 114 77 46 357 338 318
156 180 294 247 255 121 122 302 359 124 164 226 139 110 175 188 144 136 159 169 153 109 294 234 239 219 196 154 131 97 78 77 79 87 94 97 108 114 118 124 120 110 102 98 93 86 83 86 93 96 97 102 105 108 109 111 119 124 126 128 126 127 131 131 133 136 138 140 138 139 143 143 143 135 126 132 134 113 100 97 90 79 60 30 10 352
152 137 331 295 315 32 111 298 352 122 183 209 118 157 210 162 112 115 175 18 112 133 217 188 260 281 271 64 164 125 100 104 128 130 124 130 135 133 133 129 119 112 108 103 100 97 89 88 91 93 98 104 106 107 107 108 114 121 125 127 125 126 128 130 132 133 135 137 135 135 136 136 139 139 132 126 115 103 96 91 85 78 65 49 37 29
146 102 335 350 42 347 204 154 36 101 135 109 147 194 191 74 71 114 135 24 81 203 232 170 209 248 209 232 233 157 156 181 185 173 155 151 156 155 143 128 118 113 107 99 96 95 93 93 93 95 99 103 107 109 109 111 115 121 125 126 126 125 126 128 130 131 131 131 129 127 128 125 124 124 119 113 106 101 96 90 83 79 72 63 56 50
118 103 337 347 20 266 264 121 145 67 91 121 180 201 113 100 276 168 163 163 156 198 257 233 218 223 206 202 199 198 202 198 191 185 171 166 173 166 144 132 123 117 115 111 110 103 98 100 99 101 102 103 108 110 111 114 117 120 122 124 124 121 122 125 126 127 125 123 121 119 119 118 115 114 112 109 106 101 96 90 84 81 76 69 63 57
105 118 223 312 315 274 347 115 182 192 97 112 49 40 75 146 176 172 189 178 149 178 232 265 252 242 238 206 183 198 204 188 182 189 183 177 179 169 149 146 141 138 144 136 129 119 106 106 106 108 111 109 111 113 114 117 117 116 118 120 120 118 119 120 119 119 118 115 116 114 113 112 110 111 110 108 106 101 95 89 83 80 75 69 64 58
90 101 137 271 326 273 195 230 189 174 174 170 139 152 173 165 127 142 251 172 134 166 207 213 255 258 254 216 186 197 197 186 182 183 183 177 174 165 152 156 156 152 155 141 131 126 113 112 111 114 118 116 116 117 117 118 116 116 117 117 118 118 117 116 115 116 115 113 114 113 110 108 106 105 106 105 103 98 93 88 82 76 71 66 61 54
104 92 124 146 182 172 193 329 19 135 162 167 170 180 178 152 125 124 267 249 124 151 183 174 243 268 261 349 343 199 187 185 180 174 176 173 169 163 155 158 160 152 148 139 131 127 120 120 122 123 124 121 120 118 117 118 117 117 117 117 119 118 115 115 115 115 115 115 115 113 110 109 105 102 100 98 95 92 89 84 78 72 66 60 54 47
105 93 106 127 164 164 154 3 33 54 148 141 216 201 165 163 163 154 201 231 181 154 135 136 256 273 266 360 13 1 310 211 178 167 169 170 165 160 153 153 150 141 138 131 126 126 127 131 134 133 129 124 121 119 118 119 118 117 118 119 121 118 115 115 116 116 117 117 114 112 112 110 106 102 97 92 87 83 80 76 73 68 61 55 50 44
100 99 107 92 55 9 355 28 30 355 98 175 246 214 173 183 186 164 172 174 153 170 142 141 254 267 282 356 10 338 328 305 172 163 161 163 161 156 153 151 143 135 131 125 126 130 133 138 140 137 132 127 124 122 121 120 118 118 119 120 121 118 117 117 117 118 119 117 114 112 111 108 105 103 97 91 84 78 74 70 68 64 58 54 48 42
149 133 124 110 98 29 354 333 312 293 221 220 232 192 152 109 111 116 135 82 138 208 172 162 237 257 281 343 354 340 351 22 147 160 158 159 161 157 153 150 144 141 138 137 139 138 138 143 145 141 136 131 128 124 123 123 122 121 120 121 122 121 120 121 120 121 120 118 115 112 109 107 104 100 93 88 82 76 70 63 60 58 54 49 43 37
157 161 141 138 160 179 193 207 209 201 188 219 243 177 172 156 143 152 173 153 221 224 176 174 230 259 299 335 340 329 21 102 159 162 157 159 160 159 159 158 155 154 156 156 153 149 148 151 148 142 139 137 134 130 128 128 128 127 125 125 125 125 124 124 123 123 120 119 116 112 109 105 100 95 89 84 78 71 64 56 50 48 45 40 35 30
132 182 178 177 190 196 202 208 171 131 137 183 202 195 192 193 181 160 138 180 210 211 193 215 229 250 280 268 253 255 207 196 196 169 158 160 164 166 165 164 162 160 161 158 154 152 153 156 151 146 144 141 137 135 133 133 134 134 132 130 130 130 128 127 126 124 121 119 116 110 106 101 94 90 84 78 73 64 57 50 43 40 38 34 30 26
111 203 206 196 210 210 203 202 166 150 172 194 198 198 196 194 183 168 192 214 200 174 229 241 226 236 244 206 214 233 208 200 207 189 179 173 170 167 160 159 160 160 159 157 159 163 164 163 155 149 147 144 140 138 136 136 138 139 136 134 135 134 132 130 128 125 121 118 113 107 102 97 91 85 78 72 66 58 51 45 38 35 32 29 26 22
129 202 214 199 223 228 186 164 167 170 189 196 195 200 196 187 181 188 213 223 199 178 231 235 215 228 238 206 210 218 195 196 203 194 179 159 156 155 155 163 169 167 169 170 173 176 172 167 158 151 149 147 145 144 142 142 142 142 139 138 138 136 133 132 129 125 121 116 110 104 100 96 88 81 74 66 60 53 45 39 34 31 27 24 21 17
130 202 207 184 221 238 169 113 157 175 192 201 201 198 189 186 191 199 215 225 217 213 234 239 233 244 240 202 214 218 194 193 189 169 155 153 160 163 165 173 179 178 181 181 180 180 173 164 157 152 151 153 153 150 147 145 146 145 143 141 141 137 134 133 129 124 119 114 109 104 99 94 86 79 70 62 55 47 40 33 28 25 22 19 16 13
128 217 185 152 209 245 159 91 71 109 155 201 208 189 179 184 197 208 219 226 225 228 244 255 266 269 249 196 208 212 169 157 155 164 178 177 169 168 173 181 186 187 189 186 180 175 168 160 158 157 159 160 158 153 149 149 149 149 146 143 142 138 134 133 128 123 119 113 109 104 98 92 84 76 67 58 50 41 34 27 22 19 17 15 12 9
130 243 23 117 175 238 234 124 112 73 60 13 253 191 179 182 195 208 216 218 212 216 237 250 256 258 247 185 183 192 151 153 171 180 187 186 174 175 182 189 192 192 191 187 179 173 169 165 165 166 165 161 157 155 155 154 153 151 148 146 143 138 135 132 127 123 118 113 108 102 97 91 81 73 63 53 43 34 28 22 18 15 13 11 9 7
140 141 57 143 177 245 325 111 126 87 59 269 243 204 190 192 199 206 218 223 213 205 215 226 232 244 238 167 185 212 173 176 189 185 184 187 184 188 193 193 195 197 194 186 179 175 173 171 170 167 163 160 159 159 160 158 155 153 151 148 144 140 137 133 128 123 117 112 108 101 95 88 78 69 58 46 37 28 23 19 15 13 12 10 9 6
160 165 173 177 177 260 321 17 101 113 223 238 226 195 195 200 197 198 217 223 214 208 214 225 235 244 226 172 188 205 194 195 197 191 190 187 183 193 200 200 200 199 190 179 177 177 172 167 165 163 161 161 161 160 159 159 156 153 151 148 144 141 138 135 130 123 115 110 106 100 93 84 73 63 50 38 31 24 20 18 15 13 11 9 7 4
169 174 176 180 173 154 15 76 123 207 231 243 220 183 199 206 198 201 222 226 218 215 222 236 251 251 227 197 196 201 205 206 199 197 199 193 186 188 195 203 203 193 181 177 181 179 169 163 159 159 160 162 161 159 158 158 156 152 151 149 145 142 138 134 130 124 116 110 103 97 89 76 63 53 42 33 28 23 19 17 14 11 9 7 4 1
167 174 172 171 162 132 123 166 204 242 269 306 330 191 191 196 193 205 237 242 229 215 215 231 244 245 235 220 206 204 207 191 194 217 217 201 188 181 189 201 199 189 187 187 182 174 167 165 163 160 160 160 160 160 158 157 156 153 151 149 146 142 137 132 129 125 120 112 103 97 84 64 53 45 37 31 27 22 18 15 12 8 6 3 0 358
158 167 171 177 179 174 172 193 228 305 313 261 234 211 173 175 180 189 230 251 233 208 209 223 236 244 243 215 163 124 101 118 219 257 241 208 194 190 195 202 197 190 186 177 170 165 163 164 162 159 158 157 159 160 158 157 156 153 151 148 144 141 137 133 131 128 126 123 115 105 81 55 47 41 35 29 25 21 16 12 10 6 3 359 355 354
109 160 176 187 194 174 165 185 202 252 257 245 222 173 169 174 161 156 199 253 238 204 206 220 231 241 235 177 152 138 104 117 248 256 233 207 208 203 196 191 179 171 159 150 151 152 154 158 159 159 159 156 156 159 158 157 157 154 150 146 142 141 140 139 137 136 139 144 134 107 73 52 46 39 34 28 23 19 14 9 7 3 360 356 352 350
48 63 138 162 189 174 175 201 197 209 245 247 194 162 177 166 131 119 185 259 244 187 195 215 228 235 218 173 166 149 124 199 243 250 222 199 204 187 142 125 135 144 148 151 153 151 152 155 156 157 157 155 155 159 159 158 157 154 148 146 146 146 146 147 147 149 153 155 139 106 71 55 47 38 32 28 21 16 10 5 3 360 356 353 351 348
87 33 116 168 202 190 185 216 221 225 255 235 183 182 176 146 120 119 206 260 243 169 191 205 214 227 212 179 169 166 178 218 239 258 244 164 138 102 116 129 133 136 141 147 151 151 152 154 154 155 156 156 156 158 159 158 156 152 148 149 152 152 154 156 158 159 159 155 142 106 70 56 47 37 29 23 17 12 7 1 358 356 353 350 348 345
144 156 163 189 209 203 194 220 254 257 247 212 187 183 150 127 121 162 210 246 258 185 226 207 206 225 209 172 171 189 203 208 178 149 89 105 101 87 101 116 123 129 135 140 145 148 148 151 154 155 154 155 156 157 159 158 154 151 151 154 155 158 162 165 165 162 157 150 132 92 66 53 44 35 26 17 11 8 3 359 355 353 351 348 345 343
158 170 184 190 202 214 205 210 265 271 240 159 127 197 150 136 170 211 208 217 206 315 351 60 185 219 158 166 188 196 180 136 118 118 100 104 117 114 110 115 116 121 131 138 143 146 145 145 148 148 147 152 154 156 160 159 153 152 155 156 158 163 168 168 163 157 151 139 110 78 61 49 38 30 21 11 5 2 359 356 353 351 349 347 343 340
166 166 185 192 192 200 201 195 224 259 235 125 111 110 232 188 203 204 152 66 224 194 57 66 83 73 121 166 185 157 137 131 123 120 110 108 120 121 122 127 127 129 136 141 146 150 147 143 143 143 145 151 155 156 161 160 155 154 157 159 163 170 170 165 159 152 142 124 94 71 58 45 33 24 14 6 0 358 356 353 351 350 348 345 343 340
177 174 181 197 193 182 194 208 212 218 185 140 134 180 203 185 187 173 142 107 299 204 114 85 73 78 119 144 150 139 137 137 132 128 119 112 119 122 124 131 135 139 144 146 149 153 150 144 142 142 144 151 155 157 161 162 158 157 160 164 170 172 167 160 155 147 130 113 90 71 56 40 27 16 7 2 357 354 353 350 348 348 347 345 344 342
202 192 174 187 196 184 194 213 216 194 181 164 101 157 160 144 113 125 132 118 119 199 160 98 71 73 104 124 135 135 132 137 138 134 129 130 138 139 139 143 146 147 147 147 150 154 152 147 144 142 141 147 154 156 159 165 165 161 162 168 172 171 164 156 149 139 122 108 88 69 54 31 18 11 4 360 357 353 351 349 346 346 346 346 344 340
249 206 152 157 195 212 217 191 146 135 213 210 11 37 116 109 67 55 74 76 65 77 107 96 86 84 92 105 117 121 131 143 139 136 142 149 151 148 143 145 147 148 148 148 151 153 152 148 145 143 141 144 152 156 158 165 168 164 164 170 172 166 159 150 141 132 119 104 79 56 39 19 9 7 2 358 356 354 352 350 347 343 342 342 340 338
300 187 141 139 176 197 223 183 138 149 203 201 8 7 42 63 59 54 62 73 62 45 61 107 112 112 116 124 131 140 153 153 148 151 160 156 154 155 149 145 148 150 151 152 154 156 154 150 147 146 144 145 151 157 158 162 166 166 168 171 169 161 153 146 139 130 115 94 67 36 21 13 4 1 360 357 355 355 353 350 346 341 339 339 339 336
203 156 155 189 189 185 199 191 155 137 115 87 66 36 25 37 54 76 103 126 124 119 143 112 97 99 119 157 157 153 160 168 163 161 166 162 158 159 154 151 152 153 154 156 158 160 158 155 152 150 148 148 153 158 159 160 164 170 172 170 163 155 150 146 139 126 107 83 57 28 17 14 6 360 359 357 354 353 351 348 345 341 339 341 340 336
144 153 168 178 186 193 228 189 151 80 32 18 24 29 15 359 12 89 124 122 119 125 99 63 57 62 61 233 183 158 163 182 176 163 162 166 163 160 159 158 156 156 159 161 163 165 163 159 156 154 152 154 158 160 160 162 168 173 174 167 159 156 153 147 136 119 100 75 51 31 21 17 11 4 0 356 353 351 348 347 346 342 339 341 342 336
134 168 173 157 181 218 233 220 185 133 92 8 356 360 351 345 5 40 47 40 39 53 61 51 33 32 39 5 248 162 171 186 179 166 166 169 168 165 162 159 157 158 162 163 164 167 166 163 161 159 157 159 162 162 163 168 173 174 172 166 161 159 155 144 130 115 101 76 50 35 22 15 11 7 2 357 353 349 346 343 344 342 340 340 340 336
161 183 164 148 171 188 142 71 64 113 122 160 293 323 344 4 33 36 27 22 24 37 55 50 4 347 340 334 352 154 177 185 173 167 167 166 167 167 164 164 163 163 166 167 166 166 166 166 165 165 163 163 164 165 168 174 176 173 171 168 163 159 152 142 131 121 107 79 46 30 19 14 11 7 3 360 355 351 347 342 339 340 341 341 338 337